Weather History for KIMT - February, 2013

Change the Weather History Date:

Thursday, February 28, 2013

  Actual Average Record
Temperature  
Mean Temperature 26 °F -  
Max Temperature 30 °F 32 °F 48 °F (1983)
Min Temperature 21 °F 11 °F -26 °F (2014)
Degree Days  
Heating Degree Days 40    
Moisture  
Dew Point 19 °F    
Average Humidity 75    
Maximum Humidity 86    
Minimum Humidity 61    
Precipitation  
Precipitation 0.00 in - - ()
Sea Level Pressure  
Sea Level Pressure 30.05 in    
Wind  
Wind Speed 17 mph (North)    
Max Wind Speed 23 mph    
Max Gust Speed 32 mph    
Visibility 9 miles    
Events Snow    
Averages and records for this station are not official NWS values.
T = Trace of Precipitation, MM = Missing Value Source: NWS Daily Summary

Daily Weather History Graph

Daily Weather History Graph

Search for Another Location

Airport or City:

Trip Planner

Search our weather history database for the weather conditions in past years. The results will help you decide how hot, cold, wet, or windy it might be!

Date:

Astronomy

Feb. 28, 2013 Rise Set
Actual Time 6:32 AM CST 5:38 PM CST
Civil Twilight 6:02 AM CST 6:08 PM CST
Nautical Twilight 5:28 AM CST 6:42 PM CST
Astronomical Twilight 4:53 AM CST 7:17 PM CST
Moon 9:19 PM CST (2/28) 7:29 AM CST (2/28)
Length of Visible Light 12h 05m
Length of Day
11h 05m
Waning Gibbous, 90% of the Moon is Illuminated
Feb 28
Waning Gibbous
Mar 4
Last Quarter
Mar 11
New
Mar 19
First Quarter
Mar 27
Full

Hourly Weather History & Observations

Time (CST) Temp. Windchill Dew Point Humidity Pressure Visibility Wind Dir Wind Speed Gust Speed Precip Events Conditions
1:54 AM 30.9 °F 19.8 °F 25.0 °F 79% 29.88 in 10.0 mi North 16.1 mph 26.5 mph 0.00 in   Overcast
2:54 AM 30.0 °F 16.9 °F 25.0 °F 82% 29.89 in 10.0 mi North 21.9 mph 29.9 mph N/A   Overcast
3:54 AM 28.9 °F 16.5 °F 24.1 °F 82% 29.91 in 10.0 mi North 18.4 mph 28.8 mph N/A   Overcast
4:54 AM 28.0 °F 16.1 °F 23.0 °F 81% 29.94 in 10.0 mi North 16.1 mph - N/A   Overcast
5:39 AM 28.4 °F 15.8 °F 23.0 °F 80% 29.90 in 7.0 mi North 18.4 mph 24.2 mph 0.00 in   Overcast
5:54 AM 27.0 °F 14.7 °F 23.0 °F 85% 29.95 in 5.0 mi North 16.1 mph - 0.00 in Snow Light Snow
6:08 AM 26.6 °F 14.7 °F 23.0 °F 86% 29.91 in 9.0 mi North 15.0 mph 25.3 mph 0.00 in   Overcast
6:54 AM 27.0 °F 13.5 °F 23.0 °F 85% 29.98 in 9.0 mi North 19.6 mph 28.8 mph 0.00 in   Overcast
7:54 AM 27.0 °F 14.3 °F 21.9 °F 81% 29.99 in 9.0 mi North 17.3 mph 27.6 mph N/A   Overcast
8:54 AM 27.0 °F 15.2 °F 21.0 °F 78% 30.01 in 9.0 mi North 15.0 mph 29.9 mph N/A   Overcast
9:54 AM 27.0 °F 13.9 °F 19.0 °F 72% 30.03 in 8.0 mi North 18.4 mph 32.2 mph N/A   Overcast
10:54 AM 26.1 °F 12.3 °F 18.0 °F 71% 30.05 in 7.0 mi North 19.6 mph 26.5 mph 0.00 in   Overcast
11:54 AM 26.1 °F 11.6 °F 17.1 °F 69% 30.06 in 8.0 mi North 21.9 mph 28.8 mph 0.00 in   Overcast
12:54 PM 27.0 °F 15.2 °F 17.1 °F 66% 30.07 in 10.0 mi North 15.0 mph - 0.00 in   Overcast
1:54 PM 27.0 °F 14.7 °F 16.0 °F 63% 30.08 in 10.0 mi North 16.1 mph 23.0 mph N/A   Overcast
2:04 PM 26.6 °F 12.4 °F 17.6 °F 69% 30.03 in 10.0 mi North 21.9 mph 25.3 mph N/A   Overcast
2:54 PM 27.0 °F 14.7 °F 15.1 °F 61% 30.09 in 10.0 mi North 16.1 mph 26.5 mph N/A   Overcast
3:54 PM 25.0 °F 9.9 °F 16.0 °F 69% 30.11 in 10.0 mi North 23.0 mph 27.6 mph N/A   Overcast
4:54 PM 24.1 °F 9.8 °F 14.0 °F 65% 30.14 in 10.0 mi North 19.6 mph 28.8 mph N/A   Overcast
5:31 PM 23.0 °F 9.2 °F 15.8 °F 74% 30.10 in 10.0 mi North 17.3 mph 23.0 mph N/A   Overcast
5:54 PM 23.0 °F 10.6 °F 14.0 °F 68% 30.17 in 10.0 mi North 13.8 mph 26.5 mph N/A   Overcast
7:54 PM 21.9 °F 7.8 °F 15.1 °F 75% 30.19 in 10.0 mi North 17.3 mph 25.3 mph N/A   Overcast
8:54 PM 23.0 °F 9.6 °F 15.1 °F 72% 30.19 in 10.0 mi North 16.1 mph 23.0 mph N/A   Overcast
9:54 PM 21.9 °F 11.0 °F 15.1 °F 75% 30.19 in 10.0 mi NNE 10.4 mph - N/A   Mostly Cloudy
10:06 PM 21.2 °F 8.9 °F 15.8 °F 80% 30.13 in 10.0 mi North 12.7 mph - N/A   Scattered Clouds
10:54 PM 21.9 °F 11.0 °F 14.0 °F 72% 30.19 in 10.0 mi North 10.4 mph - N/A   Mostly Cloudy